SCP
0 0 0 0 0 0 0 0 0 0 0 0 0 0 0 0 0 0 0 0 0 0 0 0 0 0 0 0 0 0 0 0 0 0 0 0 0 0 0 0 0 0 0
0 0 0 0 0 0 0 0 0 0 0 0 0 0 0 0 0 0 0 0 0 0 0 0 0 0 0 0 0 0 0 0 0 0 0 0 0 0 0 0 0 0 0
0 0 0 0 0 0 0 0 0 0 0 0 0 0 0 0 0 0 0 0 0 0 0 0 0 0 0 0 0 0 0 0 0 0 0 0 0 0 0 0 0 0 0
0 0 0 0 0 0 0 0 0 0 0 0 0 0 0 0 0 0 0 0 0 0 0 0 0 0 0 0 0 0 0 0 0 0 0 0 0 0 0 0 0 0 0
0 0 0 0 0 0 0 0 0 0 0 0 0 0 0 0 0 0 0 0 0 0 0 0 0 0 0 0 0 0 0 0 0 0 0 0 0 0 0 0 0 0 0
0 0 0 0 0 0 0 0 0 0 0 0 0 0 0 0 0 0 0 0 0 0 0 0 0 0 0 0 0 0 0 0 0 0 0 0 0 0 0 0 0 0 0
0 0 0 0 0 0 0 0 0 0 0 0 0 0 0 0 0 0 0 0 0 0 0 0 0 0 0 0 0 0 0 0 0 0 0 0 0 0 0 0 0 0 0
0 0 0 0 0 0 0 0 0 0 0 0 0 0 0 0 0 0 0 0 0 0 0 0 0 0 0 0 0 0 0 0 0 0 0 0 0 0 0 0 0 0 0
0 0 0 0 0 -0 -0 -0 0 0 0 0 0 0 0 0 0 0 0 0 0 0 0 0 0 0 0 0 0 0 0 0 0 0 0 0 0 0 0 0 0 0 0
0 0 0 0 0 0 -0 -0 0 0 0 0 0 0 0 0 0 0 0 0 0 0 0 0 0 0 0 0 0 0 0 0 0 0 0 0 0 0 0 0 0 0 0
-0 0 0 0 -0 -0 -0 -0 -0 -0 0 0 0 0 0 0 0 0 0 0 0 0 0 0 0 0 0 0 0 0 0 0 0 0 0 0 0 0 0 0 0 0 0
0 0 0 0 0 0 0 0 0 0 0 0 0 -0 0 0 0 0 0 0 0 0 0 0 0 -0 -0 0 0 0 0 0 0 0 0 0 0 0 0 0 0 0 0
0 0 0 0 0 0 0 0 0 0 0 0 0 -0 -0 -0 -0 -0 0 0 0 0 0 0 0 0 0 0 0 -0 0 0 0 0 0 0 0 0 0 0 0 0 0
0 0 0 0 0 0 0 0 0 0 -0 -0 -0 -0 -0 -0 -0 -0 -0 -0 -0 0 0 0 0 0 0 0 0 0 0 0 0 0 0 0 0 0 0 0 0 0 0
0 0 0 0 0 0 0 0 0 0 0 0 0 0 0 -0 -0 -0 -0 -0 -0 -0 -0 -0 0 0 0 0 0 0 0 0 0 0 0 0 0 0 0 0 0 0 0
0 0 0 0 0 0 -0 -0 0 0 0 0 0 0 0 0 0 0 0 -0 -0 -0 -0 -0 -0 -0 -0 -0 0 0 0 0 0 0 0 0 0 0 0 0 0 0 0
0 0 0 0 0 0 0 0 0 0 0 0 0 0 0 0 0 0 0 0 0 0 0 -0 -0 -0 -0 -0 0 0 0 0 0 0 0 0 0 0 0 0 0 0 0
0 0 0 0 0 0 0 0 0 0 0 0 0 0 0 0 0 0 0 0 0 0 0 0 0 0 0 0 0 0 0 0 0 0 0 0 0 0 0 0 0 0 0
0 0 0 0 0 0 0 0 0 0 0 0 0 0 0 0 0 0 0 0 0 0 0 0 0 0 0 0 0 0 0 0 0 0 0 0 0 0 0 0 0 0 0
0 0 0 0 0 0 0 0 0 0 0 0 0 0 0 0 0 0 0 0 0 0 0 0 0 0 0 0 0 0 0 0 0 0 0 0 0 0 0 0 0 0 0
0 0 0 0 0 0 0 0 0 0 0 0 0 0 0 0 0 0 0 0 0 0 0 0 0 0 0 0 0 0 0 0 0 0 0 0 0 0 0 0 0 0 0
0 0 0 0 0 0 0 0 0 0 0 0 0 0 0 0 0 0 0 0 0 0 0 0 0 0 0 0 0 0 0 0 0 0 0 0 0 0 0 0 0 0 0
0 0 0 0 0 0 0 0 0 0 0 0 0 0 0 0 0 0 0 0 0 0 0 0 0 0 0 0 0 0 0 0 0 0 0 0 0 0 0 0 0 0 0
0 0 0 0 0 0 0 0 0 0 0 0 0 0 0 0 0 0 0 0 0 0 0 0 0 0 0 0 0 0 0 0 0 0 0 0 0 0 0 0 0 0 0
0 0 0 0 0 0 0 0 0 0 0 0 0 0 0 0 0 0 0 0 0 0 0 0 0 0 0 0 0 0 0 0 0 0 0 0 0 0 0 0 0 0 0
0 0 0 0 0 0 0 0 0 0 0 0 0 0 0 0 0 0 0 0 0 0 0 0 0 0 0 0 -0 -0 -0 -0 -0 0 0 0 0 0 0 0 0 0 0
Wind_Speed_500mb
32 30 29 26 17 6 3 6 10 18 17 16 22 29 35 35 37 40 41 46 48 51 53 54 55 60 66 68 67 66 65 64 61 61 60 62 62 61 59 56 51 48 44
40 43 45 46 47 40 29 18 11 8 8 12 13 16 24 32 30 32 38 38 42 44 49 51 54 56 62 66 67 68 70 69 69 69 64 50 65 68 66 63 59 55 52
46 48 50 53 51 53 49 38 24 11 4 4 10 11 14 11 16 24 28 35 40 41 43 46 49 53 58 65 65 68 72 74 76 77 62 27 40 48 64 73 68 63 59
44 47 48 51 54 56 50 45 37 32 24 16 6 2 3 9 11 16 20 23 28 34 40 42 46 51 55 60 62 64 69 74 79 80 83 80 54 31 27 48 62 67 66
42 46 47 47 47 46 47 45 43 42 38 29 22 15 8 1 10 15 14 16 20 23 30 37 42 46 51 56 59 63 68 74 79 87 88 87 87 70 61 54 52 59 59
35 37 36 37 41 40 40 40 38 37 35 33 32 31 24 16 9 11 18 20 19 15 15 18 27 38 47 51 55 59 64 68 76 82 87 93 90 91 84 83 79 74 69
27 29 32 33 34 34 34 34 33 33 32 30 28 29 29 28 28 23 19 21 23 25 25 24 22 20 24 35 48 55 60 64 70 74 83 86 92 93 88 86 86 78 71
20 23 24 24 22 20 20 20 21 22 23 25 30 31 28 29 28 28 27 27 27 26 26 30 36 37 32 28 32 43 54 61 67 72 75 81 84 86 92 98 88 84 78
10 12 15 17 18 18 20 21 20 20 20 23 24 26 28 29 29 29 31 30 28 30 31 29 27 29 34 37 39 40 43 51 61 70 73 75 80 86 89 91 97 96 84
6 7 10 10 12 13 13 15 19 24 26 25 24 24 26 28 31 33 33 34 36 37 37 38 37 34 31 30 33 38 43 49 54 63 68 73 74 78 82 91 94 97 102
14 13 9 5 3 6 12 19 23 26 28 30 31 30 29 29 28 31 33 36 38 42 47 50 50 47 44 39 35 36 39 46 52 54 59 68 69 75 77 81 88 99 101
20 18 16 10 4 6 14 22 26 31 33 35 37 39 40 42 45 41 42 45 44 42 45 48 51 57 58 54 46 39 37 43 49 50 52 62 64 73 76 77 83 87 92
22 20 12 6 2 8 12 17 27 34 37 38 40 44 48 51 53 56 58 60 61 60 58 56 56 57 60 66 66 60 52 47 48 50 54 59 60 69 75 80 82 84 86
23 15 13 11 10 14 16 18 28 33 36 40 45 50 54 58 62 65 68 70 71 72 71 72 71 69 68 68 70 73 70 67 61 57 55 57 61 66 69 75 81 81 85
27 24 22 17 20 28 31 32 38 45 49 51 55 59 64 69 72 74 76 77 77 78 80 82 82 83 83 81 80 80 76 75 76 75 71 64 61 63 65 69 76 79 84
6 5 11 25 29 30 30 33 38 43 51 53 58 65 70 74 77 80 84 87 89 92 95 98 101 103 102 99 96 95 91 90 87 85 85 83 75 68 66 66 69 76 84
13 13 18 22 21 20 26 32 36 40 42 52 63 70 71 75 78 84 90 96 100 104 109 113 115 117 116 113 111 109 102 99 98 99 98 95 91 84 77 71 70 70 76
14 24 24 21 26 29 34 38 42 47 55 65 68 68 72 77 84 91 96 102 104 108 111 115 117 121 125 124 119 91 80 93 105 107 107 107 106 99 92 84 80 80 77
34 25 27 30 31 32 34 40 48 55 62 66 73 77 83 89 91 93 95 97 100 106 109 111 113 107 123 117 95 85 87 95 108 112 113 112 116 117 105 95 94 90 89
33 34 34 32 33 36 43 47 51 54 62 73 82 85 87 90 93 94 97 98 97 102 103 109 107 108 114 111 93 87 90 97 100 111 115 111 102 105 92 87 99 100 100
39 39 38 35 39 43 46 48 54 63 73 79 84 86 86 89 93 96 95 94 92 90 89 90 88 86 85 88 73 70 73 82 88 92 94 92 86 86 88 87 94 106 100
43 40 39 43 43 44 45 51 62 71 77 80 82 82 84 88 89 91 92 85 80 81 83 84 85 81 78 72 63 60 62 69 82 95 97 99 95 91 91 89 92 92 89
46 44 46 45 43 43 48 58 67 74 76 78 79 80 84 83 83 84 81 76 74 77 79 79 83 86 87 90 80 71 68 63 69 80 92 88 89 85 93 94 96 90 85
47 47 47 43 41 43 51 62 68 71 73 76 77 79 81 82 79 71 67 71 73 76 79 82 89 93 89 85 83 85 89 88 86 89 89 83 80 80 81 97 84 88 87
47 49 43 42 41 46 55 61 64 67 69 70 72 75 79 79 75 67 66 66 68 66 74 82 83 87 89 87 79 82 86 84 84 87 90 85 81 79 87 64 78 71 83
47 45 45 44 44 52 59 59 60 62 62 67 69 73 76 74 71 72 74 62 62 62 64 68 71 79 80 79 77 77 78 78 78 81 84 82 80 76 72 75 62 62 64
Wind_Direction_500mb
59 56 51 44 37 42 215 192 157 157 180 225 243 249 249 248 247 241 246 250 250 250 260 261 260 259 257 255 255 253 249 244 237 237 238 239 240 242 243 245 247 250 253
74 65 62 61 59 60 67 88 122 146 192 218 237 246 243 243 245 249 248 247 252 253 256 262 263 261 259 256 255 253 251 246 240 235 238 243 247 247 244 244 245 246 248
81 73 67 64 62 60 59 62 71 87 112 207 206 225 233 235 238 232 242 251 255 258 259 255 259 263 262 260 257 255 254 250 244 241 234 233 241 253 249 246 244 244 245
80 77 72 66 62 59 59 57 57 57 59 60 67 54 176 223 244 258 250 258 260 261 261 260 259 266 266 262 261 260 255 252 248 247 244 238 252 253 255 250 247 246 246
76 71 65 61 59 55 52 52 50 52 50 44 41 44 47 358 248 259 263 255 260 264 261 261 259 258 258 263 263 261 257 255 253 251 251 250 246 251 253 260 253 249 251
79 72 61 53 49 46 42 38 36 40 42 41 41 40 36 26 351 298 284 291 288 268 269 274 268 260 257 258 260 263 263 261 259 258 255 254 252 250 251 256 259 259 260
81 71 60 56 51 42 35 28 23 25 25 25 28 32 29 23 23 15 353 325 307 298 298 287 271 269 272 263 259 259 260 262 263 261 261 260 258 255 258 260 260 264 260
73 58 47 37 36 38 40 37 34 33 27 22 22 21 16 16 19 16 9 0 353 341 319 299 293 291 282 272 270 263 259 260 262 263 262 263 262 261 258 258 261 263 261
83 44 26 12 6 8 18 27 35 41 38 33 29 23 16 10 13 9 2 358 356 351 345 339 332 311 298 290 279 269 267 266 263 262 263 261 262 262 261 259 259 258 261
97 4 340 346 357 4 27 42 33 29 28 24 22 17 12 7 360 352 347 344 344 346 346 346 341 332 320 309 299 291 279 269 267 265 263 264 263 262 260 260 260 258 258
191 204 211 182 64 46 38 37 35 28 21 14 6 360 358 350 343 338 333 330 333 330 332 334 336 334 329 322 314 307 299 287 278 271 267 267 267 266 264 261 257 258 257
206 204 193 188 157 41 25 23 16 11 7 1 358 353 349 343 338 334 331 329 324 322 320 318 316 320 322 321 317 311 305 303 297 294 285 275 270 269 268 264 264 259 256
182 165 165 171 41 354 359 8 3 355 352 351 348 344 341 336 330 329 327 324 321 320 316 311 308 307 307 309 310 310 310 306 302 300 296 290 283 276 270 268 264 263 262
190 215 241 245 277 309 314 322 336 338 334 332 333 334 332 329 325 323 321 319 317 316 314 311 308 306 303 301 300 300 302 302 301 298 292 290 289 283 279 274 268 266 264
215 237 234 260 290 300 308 311 317 325 325 322 321 323 322 321 319 317 314 313 312 311 310 307 305 303 301 300 300 297 296 294 292 291 291 289 286 285 284 277 271 268 265
188 233 247 263 281 287 289 289 295 299 305 305 308 313 312 312 312 311 311 310 309 307 304 302 301 298 298 298 297 297 296 294 292 287 285 285 284 282 282 280 277 267 261
275 251 265 291 290 289 287 283 277 282 286 295 298 305 308 309 309 308 306 305 303 301 300 299 298 297 296 295 294 293 291 288 286 286 284 282 281 280 279 279 278 273 265
260 281 288 286 274 275 282 284 287 291 298 302 307 310 310 308 306 304 302 301 301 299 297 295 294 294 292 292 293 293 289 285 283 281 280 280 278 276 277 279 278 275 272
297 283 274 277 276 277 275 284 293 301 306 311 313 312 309 308 308 306 305 303 300 298 296 294 292 289 288 288 290 292 291 287 285 283 279 276 276 276 274 274 275 275 274
273 269 269 270 273 283 294 300 304 309 313 314 313 312 313 313 312 311 309 307 305 301 299 295 294 292 291 290 290 290 288 287 285 283 281 278 273 273 269 264 268 270 271
268 260 263 269 282 292 299 305 311 316 317 315 314 315 316 315 315 314 314 312 310 307 305 303 304 303 301 301 298 294 288 285 286 283 282 279 276 270 265 261 260 263 269
251 252 268 279 287 295 303 310 317 319 316 314 315 317 318 318 318 319 318 316 314 311 311 311 311 311 312 311 303 299 291 286 280 280 281 279 274 270 267 261 257 257 260
254 263 275 281 289 298 306 314 319 316 315 316 319 320 320 322 326 322 317 317 317 314 311 309 308 314 319 317 312 303 298 293 287 285 280 275 277 275 265 261 253 251 251
262 269 276 279 288 297 309 317 316 314 317 318 321 324 325 329 326 323 324 321 319 316 312 310 309 309 309 308 308 305 305 303 297 297 296 295 280 275 276 262 256 245 244
265 275 277 283 290 303 313 316 314 314 317 319 324 327 331 327 327 331 331 322 319 310 306 302 302 302 301 301 303 301 298 295 292 292 289 287 285 281 281 275 243 238 242
267 272 279 284 297 307 313 313 313 314 317 322 329 332 331 328 334 335 332 332 324 309 305 302 301 301 300 301 302 301 298 296 292 287 282 280 277 274 277 279 267 259 255
Wind_Speed_850mb
32 30 29 26 17 6 3 6 10 18 17 16 22 29 35 35 37 40 41 46 48 51 53 54 55 60 66 68 67 66 65 64 61 61 60 62 62 61 59 56 51 48 44
40 43 45 46 47 40 29 18 11 8 8 12 13 16 24 32 30 32 38 38 42 44 49 51 54 56 62 66 67 68 70 69 69 69 64 50 65 68 66 63 59 55 52
46 48 50 53 51 53 49 38 24 11 4 4 10 11 14 11 16 24 28 35 40 41 43 46 49 53 58 65 65 68 72 74 76 77 62 27 40 48 64 73 68 63 59
44 47 48 51 54 56 50 45 37 32 24 16 6 2 3 9 11 16 20 23 28 34 40 42 46 51 55 60 62 64 69 74 79 80 83 80 54 31 27 48 62 67 66
42 46 47 47 47 46 47 45 43 42 38 29 22 15 8 1 10 15 14 16 20 23 30 37 42 46 51 56 59 63 68 74 79 87 88 87 87 70 61 54 52 59 59
35 37 36 37 41 40 40 40 38 37 35 33 32 31 24 16 9 11 18 20 19 15 15 18 27 38 47 51 55 59 64 68 76 82 87 93 90 91 84 83 79 74 69
27 29 32 33 34 34 34 34 33 33 32 30 28 29 29 28 28 23 19 21 23 25 25 24 22 20 24 35 48 55 60 64 70 74 83 86 92 93 88 86 86 78 71
20 23 24 24 22 20 20 20 21 22 23 25 30 31 28 29 28 28 27 27 27 26 26 30 36 37 32 28 32 43 54 61 67 72 75 81 84 86 92 98 88 84 78
10 12 15 17 18 18 20 21 20 20 20 23 24 26 28 29 29 29 31 30 28 30 31 29 27 29 34 37 39 40 43 51 61 70 73 75 80 86 89 91 97 96 84
6 7 10 10 12 13 13 15 19 24 26 25 24 24 26 28 31 33 33 34 36 37 37 38 37 34 31 30 33 38 43 49 54 63 68 73 74 78 82 91 94 97 102
14 13 9 5 3 6 12 19 23 26 28 30 31 30 29 29 28 31 33 36 38 42 47 50 50 47 44 39 35 36 39 46 52 54 59 68 69 75 77 81 88 99 101
20 18 16 10 4 6 14 22 26 31 33 35 37 39 40 42 45 41 42 45 44 42 45 48 51 57 58 54 46 39 37 43 49 50 52 62 64 73 76 77 83 87 92
22 20 12 6 2 8 12 17 27 34 37 38 40 44 48 51 53 56 58 60 61 60 58 56 56 57 60 66 66 60 52 47 48 50 54 59 60 69 75 80 82 84 86
23 15 13 11 10 14 16 18 28 33 36 40 45 50 54 58 62 65 68 70 71 72 71 72 71 69 68 68 70 73 70 67 61 57 55 57 61 66 69 75 81 81 85
27 24 22 17 20 28 31 32 38 45 49 51 55 59 64 69 72 74 76 77 77 78 80 82 82 83 83 81 80 80 76 75 76 75 71 64 61 63 65 69 76 79 84
6 5 11 25 29 30 30 33 38 43 51 53 58 65 70 74 77 80 84 87 89 92 95 98 101 103 102 99 96 95 91 90 87 85 85 83 75 68 66 66 69 76 84
13 13 18 22 21 20 26 32 36 40 42 52 63 70 71 75 78 84 90 96 100 104 109 113 115 117 116 113 111 109 102 99 98 99 98 95 91 84 77 71 70 70 76
14 24 24 21 26 29 34 38 42 47 55 65 68 68 72 77 84 91 96 102 104 108 111 115 117 121 125 124 119 91 80 93 105 107 107 107 106 99 92 84 80 80 77
34 25 27 30 31 32 34 40 48 55 62 66 73 77 83 89 91 93 95 97 100 106 109 111 113 107 123 117 95 85 87 95 108 112 113 112 116 117 105 95 94 90 89
33 34 34 32 33 36 43 47 51 54 62 73 82 85 87 90 93 94 97 98 97 102 103 109 107 108 114 111 93 87 90 97 100 111 115 111 102 105 92 87 99 100 100
39 39 38 35 39 43 46 48 54 63 73 79 84 86 86 89 93 96 95 94 92 90 89 90 88 86 85 88 73 70 73 82 88 92 94 92 86 86 88 87 94 106 100
43 40 39 43 43 44 45 51 62 71 77 80 82 82 84 88 89 91 92 85 80 81 83 84 85 81 78 72 63 60 62 69 82 95 97 99 95 91 91 89 92 92 89
46 44 46 45 43 43 48 58 67 74 76 78 79 80 84 83 83 84 81 76 74 77 79 79 83 86 87 90 80 71 68 63 69 80 92 88 89 85 93 94 96 90 85
47 47 47 43 41 43 51 62 68 71 73 76 77 79 81 82 79 71 67 71 73 76 79 82 89 93 89 85 83 85 89 88 86 89 89 83 80 80 81 97 84 88 87
47 49 43 42 41 46 55 61 64 67 69 70 72 75 79 79 75 67 66 66 68 66 74 82 83 87 89 87 79 82 86 84 84 87 90 85 81 79 87 64 78 71 83
47 45 45 44 44 52 59 59 60 62 62 67 69 73 76 74 71 72 74 62 62 62 64 68 71 79 80 79 77 77 78 78 78 81 84 82 80 76 72 75 62 62 64
Wind_Direction_850mb
59 56 51 44 37 42 215 192 157 157 180 225 243 249 249 248 247 241 246 250 250 250 260 261 260 259 257 255 255 253 249 244 237 237 238 239 240 242 243 245 247 250 253
74 65 62 61 59 60 67 88 122 146 192 218 237 246 243 243 245 249 248 247 252 253 256 262 263 261 259 256 255 253 251 246 240 235 238 243 247 247 244 244 245 246 248
81 73 67 64 62 60 59 62 71 87 112 207 206 225 233 235 238 232 242 251 255 258 259 255 259 263 262 260 257 255 254 250 244 241 234 233 241 253 249 246 244 244 245
80 77 72 66 62 59 59 57 57 57 59 60 67 54 176 223 244 258 250 258 260 261 261 260 259 266 266 262 261 260 255 252 248 247 244 238 252 253 255 250 247 246 246
76 71 65 61 59 55 52 52 50 52 50 44 41 44 47 358 248 259 263 255 260 264 261 261 259 258 258 263 263 261 257 255 253 251 251 250 246 251 253 260 253 249 251
79 72 61 53 49 46 42 38 36 40 42 41 41 40 36 26 351 298 284 291 288 268 269 274 268 260 257 258 260 263 263 261 259 258 255 254 252 250 251 256 259 259 260
81 71 60 56 51 42 35 28 23 25 25 25 28 32 29 23 23 15 353 325 307 298 298 287 271 269 272 263 259 259 260 262 263 261 261 260 258 255 258 260 260 264 260
73 58 47 37 36 38 40 37 34 33 27 22 22 21 16 16 19 16 9 0 353 341 319 299 293 291 282 272 270 263 259 260 262 263 262 263 262 261 258 258 261 263 261
83 44 26 12 6 8 18 27 35 41 38 33 29 23 16 10 13 9 2 358 356 351 345 339 332 311 298 290 279 269 267 266 263 262 263 261 262 262 261 259 259 258 261
97 4 340 346 357 4 27 42 33 29 28 24 22 17 12 7 360 352 347 344 344 346 346 346 341 332 320 309 299 291 279 269 267 265 263 264 263 262 260 260 260 258 258
191 204 211 182 64 46 38 37 35 28 21 14 6 360 358 350 343 338 333 330 333 330 332 334 336 334 329 322 314 307 299 287 278 271 267 267 267 266 264 261 257 258 257
206 204 193 188 157 41 25 23 16 11 7 1 358 353 349 343 338 334 331 329 324 322 320 318 316 320 322 321 317 311 305 303 297 294 285 275 270 269 268 264 264 259 256
182 165 165 171 41 354 359 8 3 355 352 351 348 344 341 336 330 329 327 324 321 320 316 311 308 307 307 309 310 310 310 306 302 300 296 290 283 276 270 268 264 263 262
190 215 241 245 277 309 314 322 336 338 334 332 333 334 332 329 325 323 321 319 317 316 314 311 308 306 303 301 300 300 302 302 301 298 292 290 289 283 279 274 268 266 264
215 237 234 260 290 300 308 311 317 325 325 322 321 323 322 321 319 317 314 313 312 311 310 307 305 303 301 300 300 297 296 294 292 291 291 289 286 285 284 277 271 268 265
188 233 247 263 281 287 289 289 295 299 305 305 308 313 312 312 312 311 311 310 309 307 304 302 301 298 298 298 297 297 296 294 292 287 285 285 284 282 282 280 277 267 261
275 251 265 291 290 289 287 283 277 282 286 295 298 305 308 309 309 308 306 305 303 301 300 299 298 297 296 295 294 293 291 288 286 286 284 282 281 280 279 279 278 273 265
260 281 288 286 274 275 282 284 287 291 298 302 307 310 310 308 306 304 302 301 301 299 297 295 294 294 292 292 293 293 289 285 283 281 280 280 278 276 277 279 278 275 272
297 283 274 277 276 277 275 284 293 301 306 311 313 312 309 308 308 306 305 303 300 298 296 294 292 289 288 288 290 292 291 287 285 283 279 276 276 276 274 274 275 275 274
273 269 269 270 273 283 294 300 304 309 313 314 313 312 313 313 312 311 309 307 305 301 299 295 294 292 291 290 290 290 288 287 285 283 281 278 273 273 269 264 268 270 271
268 260 263 269 282 292 299 305 311 316 317 315 314 315 316 315 315 314 314 312 310 307 305 303 304 303 301 301 298 294 288 285 286 283 282 279 276 270 265 261 260 263 269
251 252 268 279 287 295 303 310 317 319 316 314 315 317 318 318 318 319 318 316 314 311 311 311 311 311 312 311 303 299 291 286 280 280 281 279 274 270 267 261 257 257 260
254 263 275 281 289 298 306 314 319 316 315 316 319 320 320 322 326 322 317 317 317 314 311 309 308 314 319 317 312 303 298 293 287 285 280 275 277 275 265 261 253 251 251
262 269 276 279 288 297 309 317 316 314 317 318 321 324 325 329 326 323 324 321 319 316 312 310 309 309 309 308 308 305 305 303 297 297 296 295 280 275 276 262 256 245 244
265 275 277 283 290 303 313 316 314 314 317 319 324 327 331 327 327 331 331 322 319 310 306 302 302 302 301 301 303 301 298 295 292 292 289 287 285 281 281 275 243 238 242
267 272 279 284 297 307 313 313 313 314 317 322 329 332 331 328 334 335 332 332 324 309 305 302 301 301 300 301 302 301 298 296 292 287 282 280 277 274 277 279 267 259 255